Time,TemperatureF,DewpointF,PressureIn,WindDirection,WindDirectionDegrees,WindSpeedMPH,WindSpeedGustMPH,Humidity,HourlyPrecipIn,Conditions,Clouds,dailyrainin,SoftwareType,DateUTC
2013-09-17 00:00:00,41.8,41.0,30.42,NNW,339,0.0,1.0,97,0.00,,OVC,0.12,VWS V14.01,2013-09-17 04:00:00,
2013-09-17 00:01:00,41.7,40.9,30.42,NNW,339,1.0,1.0,97,0.00,,CLR,0.12,VWS V14.01,2013-09-17 04:01:00,
2013-09-17 00:02:00,41.8,41.0,30.42,NNW,338,0.0,1.0,97,0.00,,CLR,0.12,VWS V14.01,2013-09-17 04:02:00,
2013-09-17 00:03:00,41.8,41.0,30.42,NNW,338,0.0,0.0,97,0.00,,CLR,0.00,VWS V14.01,2013-09-17 04:03:00,
2013-09-17 00:06:00,41.9,41.1,30.42,East,95,0.0,1.0,97,0.00,,CLR,0.00,VWS V14.01,2013-09-17 04:06:00,
2013-09-17 00:11:00,42.0,41.2,30.42,East,86,1.0,1.0,97,0.00,,CLR,0.00,VWS V14.01,2013-09-17 04:11:00,
2013-09-17 00:16:00,42.2,41.4,30.42,North,9,0.0,2.0,97,0.00,,CLR,0.00,VWS V14.01,2013-09-17 04:16:00,
2013-09-17 00:21:00,42.2,41.4,30.42,North,10,1.0,2.0,97,0.00,,CLR,0.00,VWS V14.01,2013-09-17 04:21:00,
2013-09-17 00:26:00,42.3,41.5,30.43,North,9,0.0,2.0,97,0.00,,CLR,0.00,VWS V14.01,2013-09-17 04:26:00,
2013-09-17 00:30:00,42.4,41.6,30.43,North,9,0.0,2.0,97,0.00,,OVC,0.00,VWS V14.01,2013-09-17 04:30:00,
2013-09-17 00:31:00,42.3,41.5,30.43,North,9,0.0,2.0,97,0.00,,CLR,0.00,VWS V14.01,2013-09-17 04:31:00,
2013-09-17 00:36:00,42.4,41.6,30.43,North,9,0.0,0.0,97,0.00,,CLR,0.00,VWS V14.01,2013-09-17 04:36:00,
2013-09-17 00:41:00,42.4,41.6,30.43,North,9,0.0,0.0,97,0.00,,CLR,0.00,VWS V14.01,2013-09-17 04:41:00,
2013-09-17 00:47:00,42.5,41.7,30.43,North,9,0.0,0.0,97,0.00,,FEW041,0.00,VWS V14.01,2013-09-17 04:47:00,
2013-09-17 00:52:00,42.5,41.7,30.43,North,9,0.0,0.0,97,0.00,,FEW041,0.00,VWS V14.01,2013-09-17 04:52:00,
2013-09-17 00:57:00,42.5,41.7,30.43,North,9,0.0,0.0,97,0.00,,FEW041,0.00,VWS V14.01,2013-09-17 04:57:00,
2013-09-17 01:00:00,42.5,41.7,30.43,North,9,0.0,1.0,97,0.00,,OVC,0.00,VWS V14.01,2013-09-17 05:00:00,
2013-09-17 01:02:00,42.5,41.7,30.43,North,9,0.0,1.0,97,0.00,,FEW041,0.00,VWS V14.01,2013-09-17 05:02:00,
2013-09-17 01:07:00,42.5,41.7,30.43,North,9,0.0,1.0,97,0.00,,FEW041,0.00,VWS V14.01,2013-09-17 05:07:00,
2013-09-17 01:12:00,42.4,41.6,30.43,North,9,0.0,1.0,97,0.00,,FEW041,0.00,VWS V14.01,2013-09-17 05:12:00,
2013-09-17 01:17:00,42.4,41.6,30.44,North,9,0.0,1.0,97,0.00,,FEW041,0.00,VWS V14.01,2013-09-17 05:17:00,
2013-09-17 01:22:00,42.4,41.6,30.43,NNE,15,0.0,1.0,97,0.00,,FEW041,0.00,VWS V14.01,2013-09-17 05:22:00,
2013-09-17 01:27:00,42.3,41.5,30.43,NNE,15,0.0,1.0,97,0.00,,FEW041,0.00,VWS V14.01,2013-09-17 05:27:00,
2013-09-17 01:30:00,42.2,41.4,30.43,NNE,15,0.0,1.0,97,0.00,,OVC,0.00,VWS V14.01,2013-09-17 05:30:00,
2013-09-17 01:32:00,42.2,41.4,30.43,NNE,15,0.0,1.0,97,0.00,,FEW041,0.00,VWS V14.01,2013-09-17 05:32:00,
2013-09-17 01:38:00,42.0,41.2,30.43,NNE,15,0.0,0.0,97,0.00,,FEW041,0.00,VWS V14.01,2013-09-17 05:38:00,
2013-09-17 01:43:00,41.7,40.9,30.44,NNE,15,0.0,0.0,97,0.00,,FEW041,0.00,VWS V14.01,2013-09-17 05:43:00,
2013-09-17 01:48:00,41.5,40.7,30.44,NNE,15,0.0,0.0,97,0.00,,OVC041,0.00,VWS V14.01,2013-09-17 05:48:00,
2013-09-17 01:53:00,41.4,40.6,30.44,NNE,15,0.0,0.0,97,0.00,,OVC041,0.00,VWS V14.01,2013-09-17 05:53:00,
2013-09-17 01:58:00,41.3,40.5,30.44,NNE,15,0.0,0.0,97,0.00,,OVC041,0.00,VWS V14.01,2013-09-17 05:58:00,
2013-09-17 02:00:00,41.3,40.5,30.44,NNE,15,0.0,0.0,97,0.00,,OVC,0.00,VWS V14.01,2013-09-17 06:00:00,
2013-09-17 02:03:00,41.3,40.5,30.44,NNE,15,0.0,0.0,97,0.00,,OVC041,0.00,VWS V14.01,2013-09-17 06:03:00,
2013-09-17 02:08:00,41.3,40.5,30.44,NNE,15,0.0,0.0,97,0.00,,OVC041,0.00,VWS V14.01,2013-09-17 06:08:00,
2013-09-17 02:13:00,41.3,40.5,30.44,NNE,15,0.0,0.0,97,0.00,,OVC041,0.00,VWS V14.01,2013-09-17 06:13:00,
2013-09-17 02:18:00,41.2,40.4,30.44,NNE,15,0.0,0.0,97,0.00,,OVC041,0.00,VWS V14.01,2013-09-17 06:18:00,
2013-09-17 02:24:00,41.2,40.4,30.44,NNE,15,0.0,0.0,97,0.00,,OVC041,0.00,VWS V14.01,2013-09-17 06:24:00,
2013-09-17 02:29:00,41.1,40.3,30.44,NNE,15,0.0,0.0,97,0.00,,OVC041,0.00,VWS V14.01,2013-09-17 06:29:00,
2013-09-17 02:30:00,41.1,40.3,30.45,NNE,15,0.0,0.0,97,0.00,,OVC,0.00,VWS V14.01,2013-09-17 06:30:00,
2013-09-17 02:34:00,41.1,40.3,30.44,NNE,14,0.0,0.0,97,0.00,,OVC041,0.00,VWS V14.01,2013-09-17 06:34:00,
2013-09-17 02:39:00,40.9,40.1,30.44,NNE,15,0.0,0.0,97,0.00,,OVC041,0.00,VWS V14.01,2013-09-17 06:39:00,
2013-09-17 02:44:00,40.8,40.0,30.45,NNE,14,0.0,0.0,97,0.00,,OVC041,0.00,VWS V14.01,2013-09-17 06:44:00,
2013-09-17 02:49:00,40.7,39.9,30.45,NNE,15,0.0,0.0,97,0.00,,BKN039,0.00,VWS V14.01,2013-09-17 06:49:00,
2013-09-17 02:54:00,40.5,39.7,30.45,NNE,14,0.0,0.0,97,0.00,,BKN039,0.00,VWS V14.01,2013-09-17 06:54:00,
2013-09-17 02:59:00,40.4,39.6,30.45,NNE,15,0.0,0.0,97,0.00,,BKN039,0.00,VWS V14.01,2013-09-17 06:59:00,
2013-09-17 03:00:00,40.2,39.4,30.45,NNE,15,0.0,0.0,97,0.00,,OVC,0.00,VWS V14.01,2013-09-17 07:00:00,
2013-09-17 03:04:00,40.1,39.3,30.45,NNE,15,0.0,0.0,97,0.00,,BKN039,0.00,VWS V14.01,2013-09-17 07:04:00,
2013-09-17 03:09:00,40.0,39.2,30.45,NNE,15,0.0,0.0,97,0.00,,BKN039,0.00,VWS V14.01,2013-09-17 07:09:00,
2013-09-17 03:15:00,39.9,39.1,30.45,NNE,15,0.0,0.0,97,0.00,,BKN039,0.00,VWS V14.01,2013-09-17 07:15:00,
2013-09-17 03:20:00,39.7,38.9,30.45,NNE,15,0.0,0.0,97,0.00,,BKN039,0.00,VWS V14.01,2013-09-17 07:20:00,
2013-09-17 03:25:00,39.6,38.8,30.45,NNE,15,0.0,0.0,97,0.00,,BKN039,0.00,VWS V14.01,2013-09-17 07:25:00,
2013-09-17 03:30:00,39.4,38.6,30.46,NNE,14,0.0,0.0,97,0.00,,BKN039,0.00,VWS V14.01,2013-09-17 07:30:00,
2013-09-17 03:35:00,39.2,38.4,30.46,NNE,15,0.0,0.0,97,0.00,,BKN039,0.00,VWS V14.01,2013-09-17 07:35:00,
2013-09-17 03:40:00,39.1,38.3,30.46,NNE,15,0.0,0.0,97,0.00,,BKN039,0.00,VWS V14.01,2013-09-17 07:40:00,
2013-09-17 03:45:00,39.0,38.2,30.46,NNE,15,0.0,1.0,97,0.00,,CLR,0.00,VWS V14.01,2013-09-17 07:45:00,
2013-09-17 03:51:00,38.9,38.4,30.46,NNE,15,0.0,1.0,98,0.00,,CLR,0.00,VWS V14.01,2013-09-17 07:51:00,
2013-09-17 03:56:00,38.7,37.9,30.46,NNE,15,0.0,1.0,97,0.00,,CLR,0.00,VWS V14.01,2013-09-17 07:56:00,
2013-09-17 04:00:00,38.5,37.7,30.46,NNE,14,0.0,1.0,97,0.00,,OVC,0.00,VWS V14.01,2013-09-17 08:00:00,
2013-09-17 04:01:00,38.6,37.8,30.46,NNE,15,0.0,1.0,97,0.00,,CLR,0.00,VWS V14.01,2013-09-17 08:01:00,
2013-09-17 04:06:00,38.4,37.6,30.45,NNE,15,0.0,1.0,97,0.00,,CLR,0.00,VWS V14.01,2013-09-17 08:06:00,
2013-09-17 04:11:00,38.1,37.3,30.46,NNE,15,0.0,1.0,97,0.00,,CLR,0.00,VWS V14.01,2013-09-17 08:11:00,
2013-09-17 04:16:00,38.0,37.2,30.46,NNE,15,0.0,1.0,97,0.00,,CLR,0.00,VWS V14.01,2013-09-17 08:16:00,
2013-09-17 04:21:00,37.9,37.1,30.46,NNE,15,0.0,1.0,97,0.00,,CLR,0.00,VWS V14.01,2013-09-17 08:21:00,
2013-09-17 04:26:00,37.6,36.8,30.46,NNE,15,0.0,1.0,97,0.00,,CLR,0.00,VWS V14.01,2013-09-17 08:26:00,
2013-09-17 04:30:00,37.4,36.6,30.46,NNE,15,0.0,1.0,97,0.00,,OVC,0.00,VWS V14.01,2013-09-17 08:30:00,
2013-09-17 04:32:00,37.4,36.6,30.46,NNE,15,0.0,1.0,97,0.00,,CLR,0.00,VWS V14.01,2013-09-17 08:32:00,
2013-09-17 04:37:00,37.2,36.4,30.46,NNE,15,0.0,0.0,97,0.00,,CLR,0.00,VWS V14.01,2013-09-17 08:37:00,
2013-09-17 04:42:00,37.0,36.2,30.47,NNE,15,0.0,0.0,97,0.00,,CLR,0.00,VWS V14.01,2013-09-17 08:42:00,
2013-09-17 04:47:00,36.9,36.1,30.47,NNE,15,0.0,0.0,97,0.00,,CLR,0.00,VWS V14.01,2013-09-17 08:47:00,
2013-09-17 04:52:00,36.9,36.4,30.47,NNE,15,0.0,0.0,98,0.00,,CLR,0.00,VWS V14.01,2013-09-17 08:52:00,
2013-09-17 04:57:00,37.0,36.5,30.47,NNE,14,0.0,0.0,98,0.00,,CLR,0.00,VWS V14.01,2013-09-17 08:57:00,
2013-09-17 05:00:00,37.1,36.6,30.47,North,354,0.0,0.0,98,0.00,,OVC,0.00,VWS V14.01,2013-09-17 09:00:00,
2013-09-17 05:02:00,37.1,36.6,30.47,North,6,0.0,0.0,98,0.00,,CLR,0.00,VWS V14.01,2013-09-17 09:02:00,
2013-09-17 05:07:00,37.1,36.6,30.47,North,354,0.0,0.0,98,0.00,,CLR,0.00,VWS V14.01,2013-09-17 09:07:00,
2013-09-17 05:12:00,37.0,36.5,30.47,North,354,0.0,0.0,98,0.00,,CLR,0.00,VWS V14.01,2013-09-17 09:12:00,
2013-09-17 05:18:00,37.0,36.5,30.47,North,354,0.0,0.0,98,0.00,,CLR,0.00,VWS V14.01,2013-09-17 09:18:00,
2013-09-17 05:23:00,37.1,36.6,30.48,North,354,0.0,0.0,98,0.00,,CLR,0.00,VWS V14.01,2013-09-17 09:23:00,
2013-09-17 05:28:00,37.3,36.8,30.48,North,354,0.0,0.0,98,0.00,,CLR,0.00,VWS V14.01,2013-09-17 09:28:00,
2013-09-17 05:30:00,37.4,36.9,30.48,North,354,0.0,0.0,98,0.00,,OVC,0.00,VWS V14.01,2013-09-17 09:30:00,
2013-09-17 05:33:00,37.4,36.9,30.48,North,354,0.0,0.0,98,0.00,,CLR,0.00,VWS V14.01,2013-09-17 09:33:00,
2013-09-17 05:38:00,37.5,37.0,30.48,WNW,302,0.0,0.0,98,0.00,,CLR,0.00,VWS V14.01,2013-09-17 09:38:00,
2013-09-17 05:43:00,37.7,37.2,30.48,West,276,0.0,0.0,98,0.00,,CLR,0.00,VWS V14.01,2013-09-17 09:43:00,
2013-09-17 05:48:00,37.7,37.2,30.48,West,277,0.0,0.0,98,0.00,,CLR,0.00,VWS V14.01,2013-09-17 09:48:00,
2013-09-17 05:53:00,37.7,37.2,30.48,West,277,0.0,0.0,98,0.00,,CLR,0.00,VWS V14.01,2013-09-17 09:53:00,
2013-09-17 05:58:00,37.8,37.3,30.48,West,277,0.0,0.0,98,0.00,,CLR,0.00,VWS V14.01,2013-09-17 09:58:00,
2013-09-17 06:00:00,37.8,37.3,30.48,West,276,0.0,0.0,98,0.00,,OVC,0.00,VWS V14.01,2013-09-17 10:00:00,
2013-09-17 06:04:00,37.8,37.3,30.48,West,277,0.0,0.0,98,0.00,,CLR,0.00,VWS V14.01,2013-09-17 10:04:00,
2013-09-17 06:09:00,37.9,37.4,30.48,West,276,0.0,0.0,98,0.00,,CLR,0.00,VWS V14.01,2013-09-17 10:09:00,
2013-09-17 06:14:00,37.9,37.4,30.49,West,276,0.0,0.0,98,0.00,,CLR,0.00,VWS V14.01,2013-09-17 10:14:00,
2013-09-17 06:19:00,37.8,37.3,30.49,West,277,0.0,0.0,98,0.00,,CLR,0.00,VWS V14.01,2013-09-17 10:19:00,
2013-09-17 06:24:00,37.8,37.3,30.49,West,277,0.0,0.0,98,0.00,,CLR,0.00,VWS V14.01,2013-09-17 10:24:00,
2013-09-17 06:29:00,37.7,37.2,30.49,West,276,0.0,0.0,98,0.00,,CLR,0.00,VWS V14.01,2013-09-17 10:29:00,
2013-09-17 06:30:00,37.6,37.1,30.49,West,276,0.0,0.0,98,0.00,,OVC,0.00,VWS V14.01,2013-09-17 10:30:00,
2013-09-17 06:34:00,37.6,37.1,30.49,West,277,0.0,0.0,98,0.00,,CLR,0.00,VWS V14.01,2013-09-17 10:34:00,
2013-09-17 06:39:00,37.4,36.9,30.49,West,277,0.0,0.0,98,0.00,,CLR,0.00,VWS V14.01,2013-09-17 10:39:00,
2013-09-17 06:44:00,37.3,36.8,30.50,West,276,0.0,0.0,98,0.00,,CLR,0.00,VWS V14.01,2013-09-17 10:44:00,
2013-09-17 06:50:00,37.2,36.7,30.50,West,277,0.0,0.0,98,0.00,,CLR,0.00,VWS V14.01,2013-09-17 10:50:00,
2013-09-17 06:55:00,37.2,36.7,30.50,West,276,0.0,0.0,98,0.00,,CLR,0.00,VWS V14.01,2013-09-17 10:55:00,
2013-09-17 07:00:00,37.3,36.8,30.50,West,277,0.0,0.0,98,0.00,,CLR,0.00,VWS V14.01,2013-09-17 11:00:00,
2013-09-17 07:05:00,37.2,36.7,30.50,West,276,0.0,0.0,98,0.00,,CLR,0.00,VWS V14.01,2013-09-17 11:05:00,
2013-09-17 07:10:00,37.2,36.7,30.50,West,276,0.0,0.0,98,0.00,,CLR,0.00,VWS V14.01,2013-09-17 11:10:00,
2013-09-17 07:15:00,37.1,36.6,30.51,West,277,0.0,0.0,98,0.00,,CLR,0.00,VWS V14.01,2013-09-17 11:15:00,
2013-09-17 07:20:00,37.1,36.6,30.51,West,277,0.0,0.0,98,0.00,,CLR,0.00,VWS V14.01,2013-09-17 11:20:00,
2013-09-17 07:25:00,37.2,36.7,30.51,West,276,0.0,0.0,98,0.00,,CLR,0.00,VWS V14.01,2013-09-17 11:25:00,
2013-09-17 07:30:00,37.4,36.9,30.51,West,259,0.0,0.0,98,0.00,,CLR,0.00,VWS V14.01,2013-09-17 11:30:00,
2013-09-17 07:36:00,37.5,37.0,30.51,West,270,0.0,1.0,98,0.00,,CLR,0.00,VWS V14.01,2013-09-17 11:36:00,
2013-09-17 07:41:00,37.6,37.1,30.51,West,261,1.0,1.0,98,0.00,,CLR,0.00,VWS V14.01,2013-09-17 11:41:00,
2013-09-17 07:46:00,37.9,37.4,30.51,West,269,1.0,1.0,98,0.00,,,0.00,VWS V14.01,2013-09-17 11:46:00,
2013-09-17 07:51:00,38.3,37.8,30.51,WSW,255,1.0,1.0,98,0.00,,,0.00,VWS V14.01,2013-09-17 11:51:00,
2013-09-17 07:56:00,38.8,38.3,30.51,WSW,253,1.0,1.0,98,0.00,,,0.00,VWS V14.01,2013-09-17 11:56:00,
2013-09-17 08:00:00,39.2,38.7,30.51,WSW,255,1.0,1.0,98,0.00,,OVC,0.00,VWS V14.01,2013-09-17 12:00:00,
2013-09-17 08:01:00,39.1,38.6,30.51,WSW,255,0.0,1.0,98,0.00,,,0.00,VWS V14.01,2013-09-17 12:01:00,
2013-09-17 08:06:00,39.4,38.9,30.51,West,260,1.0,1.0,98,0.00,,,0.00,VWS V14.01,2013-09-17 12:06:00,
2013-09-17 08:11:00,39.7,39.2,30.52,WSW,256,1.0,1.0,98,0.00,,,0.00,VWS V14.01,2013-09-17 12:11:00,
2013-09-17 08:16:00,40.0,39.5,30.52,West,263,1.0,1.0,98,0.00,,CLR,0.00,VWS V14.01,2013-09-17 12:16:00,
2013-09-17 08:22:00,40.3,39.8,30.52,West,263,0.0,1.0,98,0.00,,CLR,0.00,VWS V14.01,2013-09-17 12:22:00,
2013-09-17 08:27:00,40.6,40.1,30.52,WSW,257,1.0,1.0,98,0.00,,CLR,0.00,VWS V14.01,2013-09-17 12:27:00,
2013-09-17 08:30:00,40.9,40.4,30.52,WSW,250,1.0,1.0,98,0.00,,OVC,0.00,VWS V14.01,2013-09-17 12:30:00,
2013-09-17 08:32:00,40.8,40.3,30.52,WSW,250,1.0,1.0,98,0.00,,,0.00,VWS V14.01,2013-09-17 12:32:00,
2013-09-17 08:37:00,41.1,40.6,30.52,WSW,257,1.0,2.0,98,0.00,,,0.00,VWS V14.01,2013-09-17 12:37:00,
2013-09-17 08:42:00,41.5,41.0,30.53,West,259,0.0,2.0,98,0.00,,,0.00,VWS V14.01,2013-09-17 12:42:00,
2013-09-17 08:48:00,41.8,41.3,30.52,West,259,0.0,2.0,98,0.00,,,0.00,VWS V14.01,2013-09-17 12:48:00,
2013-09-17 08:53:00,42.2,41.7,30.52,WSW,245,2.0,2.0,98,0.00,,,0.00,VWS V14.01,2013-09-17 12:53:00,
2013-09-17 08:58:00,42.2,41.7,30.52,WSW,257,1.0,2.0,98,0.00,,,0.00,VWS V14.01,2013-09-17 12:58:00,
2013-09-17 09:00:00,42.5,42.0,30.52,West,262,0.0,2.0,98,0.00,,OVC,0.00,VWS V14.01,2013-09-17 13:00:00,
2013-09-17 09:03:00,42.5,42.0,30.52,West,262,0.0,2.0,98,0.00,,,0.00,VWS V14.01,2013-09-17 13:03:00,
2013-09-17 09:08:00,43.0,42.7,30.53,West,259,0.0,1.0,99,0.00,,,0.00,VWS V14.01,2013-09-17 13:08:00,
2013-09-17 09:13:00,43.5,43.2,30.53,West,260,0.0,1.0,99,0.00,,,0.00,VWS V14.01,2013-09-17 13:13:00,
2013-09-17 09:18:00,44.0,43.7,30.53,West,260,1.0,1.0,99,0.00,,,0.00,VWS V14.01,2013-09-17 13:18:00,
2013-09-17 09:23:00,44.7,44.4,30.53,West,260,0.0,1.0,99,0.00,,,0.00,VWS V14.01,2013-09-17 13:23:00,
2013-09-17 09:28:00,44.9,44.6,30.53,WSW,246,1.0,1.0,99,0.00,,,0.00,VWS V14.01,2013-09-17 13:28:00,
2013-09-17 09:30:00,45.6,45.1,30.53,WSW,244,1.0,1.0,98,0.00,,OVC,0.00,VWS V14.01,2013-09-17 13:30:00,
2013-09-17 09:33:00,45.7,45.2,30.53,WSW,250,0.0,1.0,98,0.00,,,0.00,VWS V14.01,2013-09-17 13:33:00,
2013-09-17 09:39:00,46.2,44.8,30.53,ESE,104,1.0,2.0,95,0.00,,,0.00,VWS V14.01,2013-09-17 13:39:00,
2013-09-17 09:44:00,47.0,45.4,30.53,WNW,297,0.0,2.0,94,0.00,,,0.00,VWS V14.01,2013-09-17 13:44:00,
2013-09-17 09:49:00,47.9,44.8,30.53,SW,232,1.0,2.0,89,0.00,,FEW001,0.00,VWS V14.01,2013-09-17 13:49:00,
2013-09-17 09:54:00,48.8,45.4,30.54,West,280,0.0,2.0,88,0.00,,FEW001,0.00,VWS V14.01,2013-09-17 13:54:00,
2013-09-17 09:59:00,49.4,44.5,30.53,ESE,104,1.0,2.0,83,0.00,,FEW001,0.00,VWS V14.01,2013-09-17 13:59:00,
2013-09-17 10:00:00,49.9,45.0,30.53,ESE,106,1.0,2.0,83,0.00,,OVC,0.00,VWS V14.01,2013-09-17 14:00:00,
2013-09-17 10:04:00,50.1,44.8,30.53,SE,136,0.0,2.0,82,0.00,,FEW001,0.00,VWS V14.01,2013-09-17 14:04:00,
2013-09-17 10:09:00,51.0,45.4,30.53,East,89,2.0,3.0,81,0.00,,FEW001,0.00,VWS V14.01,2013-09-17 14:09:00,
2013-09-17 10:14:00,51.7,44.4,30.53,ESE,115,1.0,3.0,76,0.00,,FEW001,0.00,VWS V14.01,2013-09-17 14:14:00,
2013-09-17 10:19:00,51.9,43.5,30.53,SE,134,2.0,4.0,73,0.00,,FEW001,0.00,VWS V14.01,2013-09-17 14:19:00,
2013-09-17 10:24:00,52.0,41.8,30.53,ESE,111,0.0,4.0,68,0.00,,FEW001,0.00,VWS V14.01,2013-09-17 14:24:00,
2013-09-17 10:29:00,52.3,43.5,30.53,East,91,2.0,5.0,72,0.00,,FEW001,0.00,VWS V14.01,2013-09-17 14:29:00,
2013-09-17 10:30:00,52.5,43.0,30.53,East,95,2.0,5.0,70,0.00,,OVC,0.00,VWS V14.01,2013-09-17 14:30:00,
2013-09-17 10:35:00,52.6,42.7,30.53,East,84,1.0,2.0,69,0.00,,FEW001,0.00,VWS V14.01,2013-09-17 14:35:00,
2013-09-17 10:40:00,53.1,42.5,30.52,SE,142,1.0,2.0,67,0.00,,FEW001,0.00,VWS V14.01,2013-09-17 14:40:00,
2013-09-17 10:45:00,53.6,42.9,30.52,East,80,2.0,4.0,67,0.00,,FEW001,0.00,VWS V14.01,2013-09-17 14:45:00,
2013-09-17 10:50:00,53.8,41.9,30.52,SE,142,1.0,4.0,64,0.00,,CLR,0.00,VWS V14.01,2013-09-17 14:50:00,
2013-09-17 10:55:00,54.0,42.5,30.52,SE,138,3.0,4.0,65,0.00,,CLR,0.00,VWS V14.01,2013-09-17 14:55:00,
2013-09-17 11:00:00,53.7,42.6,30.52,East,100,1.0,6.0,66,0.00,,CLR,0.00,VWS V14.01,2013-09-17 15:00:00,
2013-09-17 11:05:00,54.1,42.6,30.52,ESE,116,2.0,5.0,65,0.00,,CLR,0.00,VWS V14.01,2013-09-17 15:05:00,
2013-09-17 11:10:00,54.8,43.7,30.52,South,169,2.0,5.0,66,0.00,,CLR,0.00,VWS V14.01,2013-09-17 15:10:00,
2013-09-17 11:15:00,55.5,43.9,30.52,SSW,201,0.0,5.0,65,0.00,,CLR,0.00,VWS V14.01,2013-09-17 15:15:00,
2013-09-17 11:20:00,55.6,44.4,30.52,East,79,2.0,6.0,66,0.00,,CLR,0.00,VWS V14.01,2013-09-17 15:20:00,
2013-09-17 11:25:00,55.5,43.1,30.52,South,186,3.0,6.0,63,0.00,,CLR,0.00,VWS V14.01,2013-09-17 15:25:00,
2013-09-17 11:30:00,56.3,43.9,30.51,ENE,76,3.0,6.0,63,0.00,,OVC,0.00,VWS V14.01,2013-09-17 15:30:00,
2013-09-17 11:31:00,55.9,43.1,30.51,SW,231,2.0,6.0,62,0.00,,CLR,0.00,VWS V14.01,2013-09-17 15:31:00,
2013-09-17 11:36:00,56.5,45.7,30.51,East,80,3.0,4.0,67,0.00,,CLR,0.00,VWS V14.01,2013-09-17 15:36:00,
2013-09-17 11:41:00,55.9,43.9,30.51,ENE,76,3.0,6.0,64,0.00,,CLR,0.00,VWS V14.01,2013-09-17 15:41:00,
2013-09-17 11:46:00,56.3,43.9,30.51,SE,146,1.0,6.0,63,0.00,,CLR,0.00,VWS V14.01,2013-09-17 15:46:00,
2013-09-17 11:51:00,56.8,44.3,30.51,SSE,162,4.0,6.0,63,0.00,,CLR,0.00,VWS V14.01,2013-09-17 15:51:00,
2013-09-17 11:56:00,57.6,45.5,30.51,ESE,110,2.0,6.0,64,0.00,,CLR,0.00,VWS V14.01,2013-09-17 15:56:00,
2013-09-17 12:00:00,57.8,43.6,30.51,ESE,106,1.0,6.0,59,0.00,,OVC,0.00,VWS V14.01,2013-09-17 16:00:00,
2013-09-17 12:01:00,57.8,44.9,30.51,East,96,1.0,6.0,62,0.00,,CLR,0.00,VWS V14.01,2013-09-17 16:01:00,
2013-09-17 12:06:00,57.8,44.0,30.51,SSW,197,1.0,3.0,60,0.00,,CLR,0.00,VWS V14.01,2013-09-17 16:06:00,
2013-09-17 12:11:00,58.0,43.8,30.50,ESE,107,1.0,3.0,59,0.00,,CLR,0.00,VWS V14.01,2013-09-17 16:11:00,
2013-09-17 12:16:00,57.8,42.7,30.50,SE,146,1.0,3.0,57,0.00,,CLR,0.00,VWS V14.01,2013-09-17 16:16:00,
2013-09-17 12:21:00,57.8,44.5,30.50,ENE,70,2.0,5.0,61,0.00,,CLR,0.00,VWS V14.01,2013-09-17 16:21:00,
2013-09-17 12:27:00,57.9,43.2,30.50,ENE,71,2.0,5.0,58,0.00,,CLR,0.00,VWS V14.01,2013-09-17 16:27:00,
2013-09-17 12:30:00,57.9,44.5,30.50,ESE,121,1.0,5.0,61,0.00,,OVC,0.00,VWS V14.01,2013-09-17 16:30:00,
2013-09-17 12:32:00,57.9,43.2,30.50,SE,134,1.0,5.0,58,0.00,,CLR,0.00,VWS V14.01,2013-09-17 16:32:00,
2013-09-17 12:37:00,58.5,44.2,30.49,ESE,102,1.0,3.0,59,0.00,,CLR,0.00,VWS V14.01,2013-09-17 16:37:00,
2013-09-17 12:42:00,59.0,42.9,30.49,SSW,212,2.0,3.0,55,0.00,,CLR,0.00,VWS V14.01,2013-09-17 16:42:00,
2013-09-17 12:47:00,58.9,42.8,30.49,SSW,200,2.0,3.0,55,0.00,,CLR,0.00,VWS V14.01,2013-09-17 16:47:00,
2013-09-17 12:52:00,59.0,43.3,30.49,SSE,148,1.0,6.0,56,0.00,,CLR,0.00,VWS V14.01,2013-09-17 16:52:00,
2013-09-17 12:57:00,59.0,42.9,30.49,SSE,150,1.0,6.0,55,0.00,,CLR,0.00,VWS V14.01,2013-09-17 16:57:00,
2013-09-17 13:00:00,58.9,44.6,30.49,ENE,73,2.0,6.0,59,0.00,,OVC,0.00,VWS V14.01,2013-09-17 17:00:00,
2013-09-17 13:02:00,58.9,42.8,30.49,East,93,2.0,6.0,55,0.00,,CLR,0.00,VWS V14.01,2013-09-17 17:02:00,
2013-09-17 13:07:00,58.8,43.2,30.49,SE,126,2.0,3.0,56,0.00,,CLR,0.00,VWS V14.01,2013-09-17 17:07:00,
2013-09-17 13:12:00,58.8,44.1,30.48,ESE,110,1.0,4.0,58,0.00,,CLR,0.00,VWS V14.01,2013-09-17 17:12:00,
2013-09-17 13:18:00,58.7,44.0,30.48,East,86,2.0,4.0,58,0.00,,CLR,0.00,VWS V14.01,2013-09-17 17:18:00,
2013-09-17 13:23:00,58.3,43.2,30.48,South,169,1.0,4.0,57,0.00,,CLR,0.00,VWS V14.01,2013-09-17 17:23:00,
2013-09-17 13:28:00,58.5,42.9,30.48,ENE,64,0.0,5.0,56,0.00,,CLR,0.00,VWS V14.01,2013-09-17 17:28:00,
2013-09-17 13:30:00,58.3,44.0,30.48,SE,139,1.0,5.0,59,0.00,,OVC,0.00,VWS V14.01,2013-09-17 17:30:00,
2013-09-17 13:33:00,58.3,44.0,30.48,SE,139,1.0,5.0,59,0.00,,CLR,0.00,VWS V14.01,2013-09-17 17:33:00,
2013-09-17 13:38:00,58.8,45.4,30.47,ESE,113,2.0,3.0,61,0.00,,CLR,0.00,VWS V14.01,2013-09-17 17:38:00,
2013-09-17 13:43:00,58.6,42.5,30.47,SW,235,1.0,4.0,55,0.00,,CLR,0.00,VWS V14.01,2013-09-17 17:43:00,
2013-09-17 13:48:00,58.7,44.4,30.47,SSE,158,2.0,6.0,59,0.00,,CLR,0.00,VWS V14.01,2013-09-17 17:48:00,
2013-09-17 13:53:00,59.0,44.7,30.46,East,84,2.0,6.0,59,0.00,,CLR,0.00,VWS V14.01,2013-09-17 17:53:00,
2013-09-17 13:58:00,59.4,45.5,30.46,East,93,2.0,6.0,60,0.00,,CLR,0.00,VWS V14.01,2013-09-17 17:58:00,
2013-09-17 14:00:00,59.5,44.7,30.46,SE,145,2.0,6.0,58,0.00,,OVC,0.00,VWS V14.01,2013-09-17 18:00:00,
2013-09-17 14:03:00,59.5,44.7,30.46,SE,143,2.0,2.0,58,0.00,,CLR,0.00,VWS V14.01,2013-09-17 18:03:00,
2013-09-17 14:08:00,59.6,42.5,30.46,East,91,0.0,5.0,53,0.00,,CLR,0.00,VWS V14.01,2013-09-17 18:08:00,
2013-09-17 14:13:00,59.5,43.3,30.45,North,8,1.0,5.0,55,0.00,,CLR,0.00,VWS V14.01,2013-09-17 18:13:00,
2013-09-17 14:19:00,59.1,43.0,30.45,SSE,158,2.0,5.0,55,0.00,,CLR,0.00,VWS V14.01,2013-09-17 18:19:00,
2013-09-17 14:24:00,59.6,44.4,30.45,ESE,105,2.0,5.0,57,0.00,,CLR,0.00,VWS V14.01,2013-09-17 18:24:00,
2013-09-17 14:29:00,59.9,44.2,30.45,East,93,1.0,5.0,56,0.00,,CLR,0.00,VWS V14.01,2013-09-17 18:29:00,
2013-09-17 14:30:00,59.8,42.7,30.45,SSE,158,2.0,5.0,53,0.00,,OVC,0.00,VWS V14.01,2013-09-17 18:30:00,
2013-09-17 14:34:00,59.9,43.7,30.45,ESE,120,3.0,3.0,55,0.00,,CLR,0.00,VWS V14.01,2013-09-17 18:34:00,
2013-09-17 14:39:00,60.0,42.8,30.45,ENE,68,3.0,5.0,53,0.00,,CLR,0.00,VWS V14.01,2013-09-17 18:39:00,
2013-09-17 14:44:00,59.8,43.1,30.44,East,87,1.0,5.0,54,0.00,,CLR,0.00,VWS V14.01,2013-09-17 18:44:00,
2013-09-17 14:49:00,59.6,42.5,30.44,SE,136,3.0,5.0,53,0.00,,CLR,0.00,VWS V14.01,2013-09-17 18:49:00,
2013-09-17 14:54:00,60.1,44.8,30.44,East,83,2.0,5.0,57,0.00,,CLR,0.00,VWS V14.01,2013-09-17 18:54:00,
2013-09-17 14:59:00,60.1,41.9,30.44,SE,137,3.0,6.0,51,0.00,,CLR,0.00,VWS V14.01,2013-09-17 18:59:00,
2013-09-17 15:00:00,59.9,42.7,30.43,SW,215,1.0,6.0,53,0.00,,OVC,0.00,VWS V14.01,2013-09-17 19:00:00,
2013-09-17 15:05:00,59.9,43.7,30.43,ENE,68,0.0,2.0,55,0.00,,CLR,0.00,VWS V14.01,2013-09-17 19:05:00,
2013-09-17 15:10:00,59.9,43.2,30.43,SW,232,0.0,3.0,54,0.00,,CLR,0.00,VWS V14.01,2013-09-17 19:10:00,
2013-09-17 15:15:00,59.8,42.2,30.43,East,91,1.0,3.0,52,0.00,,CLR,0.00,VWS V14.01,2013-09-17 19:15:00,
2013-09-17 15:20:00,60.0,42.3,30.42,ENE,63,0.0,3.0,52,0.00,,CLR,0.00,VWS V14.01,2013-09-17 19:20:00,
2013-09-17 15:25:00,59.9,42.2,30.42,East,87,3.0,4.0,52,0.00,,CLR,0.00,VWS V14.01,2013-09-17 19:25:00,
2013-09-17 15:30:00,60.2,43.0,30.42,SSE,158,1.0,7.0,53,0.00,,CLR,0.00,VWS V14.01,2013-09-17 19:30:00,
2013-09-17 15:35:00,60.0,41.8,30.42,SW,224,2.0,3.0,51,0.00,,CLR,0.00,VWS V14.01,2013-09-17 19:35:00,
2013-09-17 15:40:00,60.0,42.8,30.42,East,97,2.0,3.0,53,0.00,,CLR,0.00,VWS V14.01,2013-09-17 19:40:00,
2013-09-17 15:45:00,60.0,41.8,30.42,ESE,123,1.0,4.0,51,0.00,,CLR,0.00,VWS V14.01,2013-09-17 19:45:00,
2013-09-17 15:50:00,60.2,44.0,30.42,SE,134,1.0,4.0,55,0.00,,CLR,0.00,VWS V14.01,2013-09-17 19:50:00,
2013-09-17 15:56:00,60.3,42.1,30.42,ESE,111,2.0,6.0,51,0.00,,CLR,0.00,VWS V14.01,2013-09-17 19:56:00,
2013-09-17 16:00:00,60.5,41.3,30.41,East,83,1.0,6.0,49,0.00,,OVC,0.00,VWS V14.01,2013-09-17 20:00:00,
2013-09-17 16:01:00,60.5,41.8,30.42,ESE,118,3.0,6.0,50,0.00,,CLR,0.00,VWS V14.01,2013-09-17 20:01:00,
2013-09-17 16:06:00,60.4,41.7,30.41,East,81,3.0,3.0,50,0.00,,CLR,0.00,VWS V14.01,2013-09-17 20:06:00,
2013-09-17 16:11:00,60.3,42.1,30.41,SSE,153,1.0,3.0,51,0.00,,CLR,0.00,VWS V14.01,2013-09-17 20:11:00,
2013-09-17 16:16:00,60.3,41.6,30.41,SSW,205,2.0,6.0,50,0.00,,CLR,0.00,VWS V14.01,2013-09-17 20:16:00,
2013-09-17 16:21:00,60.1,41.9,30.41,ESE,103,1.0,6.0,51,0.00,,CLR,0.00,VWS V14.01,2013-09-17 20:21:00,
2013-09-17 16:26:00,60.2,43.5,30.41,SSE,149,3.0,6.0,54,0.00,,CLR,0.00,VWS V14.01,2013-09-17 20:26:00,
2013-09-17 16:30:00,60.1,42.4,30.40,SSE,153,2.0,6.0,52,0.00,,OVC,0.00,VWS V14.01,2013-09-17 20:30:00,
2013-09-17 16:31:00,60.2,42.0,30.40,SSE,153,2.0,6.0,51,0.00,,CLR,0.00,VWS V14.01,2013-09-17 20:31:00,
2013-09-17 16:36:00,60.2,42.5,30.40,SE,138,1.0,3.0,52,0.00,,CLR,0.00,VWS V14.01,2013-09-17 20:36:00,
2013-09-17 16:41:00,60.3,43.1,30.40,SSW,200,1.0,5.0,53,0.00,,CLR,0.00,VWS V14.01,2013-09-17 20:41:00,
2013-09-17 16:47:00,60.2,43.0,30.40,SSE,150,1.0,5.0,53,0.00,,CLR,0.00,VWS V14.01,2013-09-17 20:47:00,
2013-09-17 16:52:00,60.1,42.9,30.40,ESE,120,1.0,7.0,53,0.00,,CLR,0.00,VWS V14.01,2013-09-17 20:52:00,
2013-09-17 16:57:00,60.1,42.4,30.40,SSW,197,2.0,7.0,52,0.00,,CLR,0.00,VWS V14.01,2013-09-17 20:57:00,
2013-09-17 17:00:00,60.1,42.9,30.39,SSE,167,3.0,7.0,53,0.00,,OVC,0.00,VWS V14.01,2013-09-17 21:00:00,
2013-09-17 17:02:00,60.1,42.9,30.39,SE,141,0.0,7.0,53,0.00,,CLR,0.00,VWS V14.01,2013-09-17 21:02:00,
2013-09-17 17:07:00,60.2,43.5,30.39,SE,139,1.0,5.0,54,0.00,,CLR,0.00,VWS V14.01,2013-09-17 21:07:00,
2013-09-17 17:12:00,60.2,43.5,30.39,ESE,105,2.0,6.0,54,0.00,,CLR,0.00,VWS V14.01,2013-09-17 21:12:00,
2013-09-17 17:17:00,59.9,42.7,30.39,ENE,77,4.0,6.0,53,0.00,,CLR,0.00,VWS V14.01,2013-09-17 21:17:00,
2013-09-17 17:22:00,59.8,43.6,30.39,SE,137,4.0,6.0,55,0.00,,CLR,0.00,VWS V14.01,2013-09-17 21:22:00,
2013-09-17 17:27:00,59.9,43.7,30.39,East,96,1.0,6.0,55,0.00,,CLR,0.00,VWS V14.01,2013-09-17 21:27:00,
2013-09-17 17:30:00,59.8,44.1,30.39,SSE,156,2.0,6.0,56,0.00,,OVC,0.00,VWS V14.01,2013-09-17 21:30:00,
2013-09-17 17:32:00,59.8,44.1,30.39,SSE,153,2.0,6.0,56,0.00,,CLR,0.00,VWS V14.01,2013-09-17 21:32:00,
2013-09-17 17:38:00,59.8,45.0,30.39,ESE,106,2.0,4.0,58,0.00,,CLR,0.00,VWS V14.01,2013-09-17 21:38:00,
2013-09-17 17:43:00,59.8,44.5,30.39,SE,137,2.0,4.0,57,0.00,,CLR,0.00,VWS V14.01,2013-09-17 21:43:00,
2013-09-17 17:48:00,59.8,44.1,30.38,East,101,1.0,5.0,56,0.00,,CLR,0.00,VWS V14.01,2013-09-17 21:48:00,
2013-09-17 17:53:00,59.7,44.5,30.38,SE,124,2.0,5.0,57,0.00,,CLR,0.00,VWS V14.01,2013-09-17 21:53:00,
2013-09-17 17:58:00,59.5,44.7,30.38,South,169,1.0,5.0,58,0.00,,CLR,0.00,VWS V14.01,2013-09-17 21:58:00,
2013-09-17 18:00:00,59.4,44.2,30.38,SSE,149,2.0,5.0,57,0.00,,OVC,0.00,VWS V14.01,2013-09-17 22:00:00,
2013-09-17 18:03:00,59.4,44.2,30.38,ESE,107,1.0,2.0,57,0.00,,CLR,0.00,VWS V14.01,2013-09-17 22:03:00,
2013-09-17 18:08:00,59.2,44.5,30.38,SE,146,1.0,3.0,58,0.00,,CLR,0.00,VWS V14.01,2013-09-17 22:08:00,
2013-09-17 18:14:00,59.0,44.3,30.38,East,99,1.0,3.0,58,0.00,,CLR,0.00,VWS V14.01,2013-09-17 22:14:00,
2013-09-17 18:19:00,58.9,45.1,30.38,ESE,115,2.0,4.0,60,0.00,,CLR,0.00,VWS V14.01,2013-09-17 22:19:00,
2013-09-17 18:24:00,58.7,45.3,30.38,SSE,155,2.0,4.0,61,0.00,,CLR,0.00,VWS V14.01,2013-09-17 22:24:00,
2013-09-17 18:29:00,58.4,45.9,30.38,ESE,107,1.0,4.0,63,0.00,,CLR,0.00,VWS V14.01,2013-09-17 22:29:00,
2013-09-17 18:30:00,58.2,45.7,30.38,ESE,110,2.0,4.0,63,0.00,,OVC,0.00,VWS V14.01,2013-09-17 22:30:00,
2013-09-17 18:34:00,58.1,45.6,30.38,ESE,118,2.0,4.0,63,0.00,,CLR,0.00,VWS V14.01,2013-09-17 22:34:00,
2013-09-17 18:39:00,57.9,45.4,30.37,ESE,118,2.0,4.0,63,0.00,,CLR,0.00,VWS V14.01,2013-09-17 22:39:00,
2013-09-17 18:44:00,57.6,45.9,30.37,East,90,1.0,4.0,65,0.00,,CLR,0.00,VWS V14.01,2013-09-17 22:44:00,
2013-09-17 18:49:00,57.0,46.6,30.37,East,92,0.0,4.0,68,0.00,,CLR,0.00,VWS V14.01,2013-09-17 22:49:00,
2013-09-17 18:54:00,56.3,46.7,30.37,East,92,0.0,4.0,70,0.00,,CLR,0.00,VWS V14.01,2013-09-17 22:54:00,
2013-09-17 19:00:00,55.5,46.3,30.37,East,89,0.0,4.0,71,0.00,,CLR,0.00,VWS V14.01,2013-09-17 23:00:00,
2013-09-17 19:05:00,54.9,46.1,30.37,East,89,0.0,0.0,72,0.00,,CLR,0.00,VWS V14.01,2013-09-17 23:05:00,
2013-09-17 19:10:00,54.5,46.0,30.37,East,89,0.0,0.0,73,0.00,,CLR,0.00,VWS V14.01,2013-09-17 23:10:00,
2013-09-17 19:15:00,54.0,45.9,30.36,East,89,0.0,0.0,74,0.00,,CLR,0.00,VWS V14.01,2013-09-17 23:15:00,
2013-09-17 19:20:00,53.6,45.9,30.36,East,89,0.0,0.0,75,0.00,,CLR,0.00,VWS V14.01,2013-09-17 23:20:00,
2013-09-17 19:25:00,53.2,45.8,30.36,East,89,0.0,0.0,76,0.00,,CLR,0.00,VWS V14.01,2013-09-17 23:25:00,
2013-09-17 19:30:00,52.9,45.9,30.36,East,89,0.0,0.0,77,0.00,,CLR,0.00,VWS V14.01,2013-09-17 23:30:00,
2013-09-17 19:35:00,52.6,46.0,30.36,East,89,0.0,0.0,78,0.00,,CLR,0.00,VWS V14.01,2013-09-17 23:35:00,
2013-09-17 19:40:00,52.4,46.1,30.36,East,89,0.0,1.0,79,0.00,,CLR,0.00,VWS V14.01,2013-09-17 23:40:00,
2013-09-17 19:45:00,52.1,45.8,30.36,East,89,0.0,1.0,79,0.00,,CLR,0.00,VWS V14.01,2013-09-17 23:45:00,
2013-09-17 19:51:00,51.9,45.9,30.36,ENE,58,1.0,1.0,80,0.00,,CLR,0.00,VWS V14.01,2013-09-17 23:51:00,
2013-09-17 19:56:00,51.6,46.6,30.36,NE,47,1.0,1.0,83,0.00,,CLR,0.00,VWS V14.01,2013-09-17 23:56:00,
2013-09-17 20:00:00,51.2,46.2,30.37,NE,47,0.0,1.0,83,0.00,,OVC,0.00,VWS V14.01,2013-09-18 00:00:00,
2013-09-17 20:01:00,51.2,46.2,30.36,NE,47,0.0,1.0,83,0.00,,CLR,0.00,VWS V14.01,2013-09-18 00:01:00,
2013-09-17 20:06:00,51.0,46.0,30.37,NE,47,0.0,0.0,83,0.00,,CLR,0.00,VWS V14.01,2013-09-18 00:06:00,
2013-09-17 20:11:00,50.8,45.8,30.37,NE,47,0.0,0.0,83,0.00,,CLR,0.00,VWS V14.01,2013-09-18 00:11:00,
2013-09-17 20:17:00,50.7,46.0,30.37,NE,47,0.0,0.0,84,0.00,,CLR,0.00,VWS V14.01,2013-09-18 00:17:00,
2013-09-17 20:22:00,50.5,45.8,30.37,NE,47,0.0,0.0,84,0.00,,CLR,0.00,VWS V14.01,2013-09-18 00:22:00,
2013-09-17 20:27:00,50.3,45.7,30.38,NE,47,0.0,0.0,84,0.00,,CLR,0.00,VWS V14.01,2013-09-18 00:27:00,
2013-09-17 20:30:00,50.1,45.5,30.38,NE,47,0.0,0.0,84,0.00,,OVC,0.00,VWS V14.01,2013-09-18 00:30:00,
2013-09-17 20:32:00,50.1,45.5,30.38,NE,47,0.0,0.0,84,0.00,,CLR,0.00,VWS V14.01,2013-09-18 00:32:00,
2013-09-17 20:37:00,50.0,45.4,30.37,NE,47,0.0,0.0,84,0.00,,CLR,0.00,VWS V14.01,2013-09-18 00:37:00,
2013-09-17 20:42:00,49.8,45.5,30.37,NE,47,0.0,0.0,85,0.00,,CLR,0.00,VWS V14.01,2013-09-18 00:42:00,
2013-09-17 20:47:00,49.7,45.7,30.37,NE,47,0.0,0.0,86,0.00,,CLR,0.00,VWS V14.01,2013-09-18 00:47:00,
2013-09-17 20:52:00,49.6,45.6,30.38,NE,47,0.0,0.0,86,0.00,,CLR,0.00,VWS V14.01,2013-09-18 00:52:00,
2013-09-17 20:57:00,49.5,45.5,30.38,NE,47,0.0,0.0,86,0.00,,CLR,0.00,VWS V14.01,2013-09-18 00:57:00,
2013-09-17 21:00:00,49.5,45.5,30.37,NE,47,0.0,0.0,86,0.00,,OVC,0.00,VWS V14.01,2013-09-18 01:00:00,
2013-09-17 21:02:00,49.5,45.5,30.37,NE,46,0.0,0.0,86,0.00,,CLR,0.00,VWS V14.01,2013-09-18 01:02:00,
2013-09-17 21:08:00,49.4,45.4,30.37,NE,47,0.0,0.0,86,0.00,,CLR,0.00,VWS V14.01,2013-09-18 01:08:00,
2013-09-17 21:13:00,49.3,45.3,30.38,NE,47,0.0,0.0,86,0.00,,CLR,0.00,VWS V14.01,2013-09-18 01:13:00,
2013-09-17 21:18:00,49.2,45.2,30.37,NE,47,0.0,0.0,86,0.00,,CLR,0.00,VWS V14.01,2013-09-18 01:18:00,
2013-09-17 21:23:00,49.0,45.0,30.37,NE,47,0.0,0.0,86,0.00,,CLR,0.00,VWS V14.01,2013-09-18 01:23:00,
2013-09-17 21:28:00,48.8,45.1,30.37,NE,47,0.0,0.0,87,0.00,,CLR,0.00,VWS V14.01,2013-09-18 01:28:00,
2013-09-17 21:30:00,48.8,45.1,30.37,NE,47,0.0,0.0,87,0.00,,OVC,0.00,VWS V14.01,2013-09-18 01:30:00,
2013-09-17 21:33:00,48.7,45.0,30.37,NE,47,0.0,0.0,87,0.00,,CLR,0.00,VWS V14.01,2013-09-18 01:33:00,
2013-09-17 21:38:00,48.5,44.8,30.37,NE,47,0.0,0.0,87,0.00,,CLR,0.00,VWS V14.01,2013-09-18 01:38:00,
2013-09-17 21:43:00,48.2,44.5,30.37,NE,47,0.0,0.0,87,0.00,,CLR,0.00,VWS V14.01,2013-09-18 01:43:00,
2013-09-17 21:48:00,48.0,44.9,30.37,NE,47,0.0,0.0,89,0.00,,CLR,0.00,VWS V14.01,2013-09-18 01:48:00,
2013-09-17 21:53:00,47.9,44.8,30.37,NE,47,0.0,0.0,89,0.00,,CLR,0.00,VWS V14.01,2013-09-18 01:53:00,
2013-09-17 21:59:00,47.7,44.6,30.37,NE,47,0.0,0.0,89,0.00,,CLR,0.00,VWS V14.01,2013-09-18 01:59:00,
2013-09-17 22:00:00,47.2,44.1,30.36,NE,47,0.0,0.0,89,0.00,,OVC,0.00,VWS V14.01,2013-09-18 02:00:00,
2013-09-17 22:04:00,47.1,44.0,30.36,NE,47,0.0,0.0,89,0.00,,CLR,0.00,VWS V14.01,2013-09-18 02:04:00,
2013-09-17 22:09:00,46.6,43.8,30.36,NE,47,0.0,0.0,90,0.00,,CLR,0.00,VWS V14.01,2013-09-18 02:09:00,
2013-09-17 22:14:00,46.3,43.8,30.36,NE,47,0.0,0.0,91,0.00,,CLR,0.00,VWS V14.01,2013-09-18 02:14:00,
2013-09-17 22:19:00,46.2,44.0,30.36,NE,47,0.0,0.0,92,0.00,,CLR,0.00,VWS V14.01,2013-09-18 02:19:00,
2013-09-17 22:24:00,46.1,43.9,30.36,NE,47,0.0,0.0,92,0.00,,CLR,0.00,VWS V14.01,2013-09-18 02:24:00,
2013-09-17 22:29:00,46.0,43.8,30.36,NE,47,0.0,0.0,92,0.00,,CLR,0.00,VWS V14.01,2013-09-18 02:29:00,
2013-09-17 22:30:00,45.9,43.7,30.36,NE,47,0.0,0.0,92,0.00,,OVC,0.00,VWS V14.01,2013-09-18 02:30:00,
2013-09-17 22:34:00,45.8,43.6,30.36,NE,47,0.0,0.0,92,0.00,,CLR,0.00,VWS V14.01,2013-09-18 02:34:00,
2013-09-17 22:39:00,45.4,43.2,30.36,NE,47,0.0,0.0,92,0.00,,CLR,0.00,VWS V14.01,2013-09-18 02:39:00,
2013-09-17 22:45:00,45.2,43.3,30.36,NE,47,0.0,0.0,93,0.00,,CLR,0.00,VWS V14.01,2013-09-18 02:45:00,
2013-09-17 22:50:00,44.9,43.0,30.36,NE,47,0.0,0.0,93,0.00,,CLR,0.00,VWS V14.01,2013-09-18 02:50:00,
2013-09-17 22:55:00,45.0,43.4,30.36,NE,46,0.0,0.0,94,0.00,,CLR,0.00,VWS V14.01,2013-09-18 02:55:00,
2013-09-17 23:00:00,45.0,43.4,30.36,NE,47,0.0,0.0,94,0.00,,CLR,0.00,VWS V14.01,2013-09-18 03:00:00,
2013-09-17 23:05:00,44.6,42.7,30.36,NE,47,0.0,0.0,93,0.00,,CLR,0.00,VWS V14.01,2013-09-18 03:05:00,
2013-09-17 23:10:00,44.2,42.3,30.36,NE,47,0.0,0.0,93,0.00,,CLR,0.00,VWS V14.01,2013-09-18 03:10:00,
2013-09-17 23:15:00,44.1,42.5,30.36,NE,47,0.0,0.0,94,0.00,,CLR,0.00,VWS V14.01,2013-09-18 03:15:00,
2013-09-17 23:21:00,44.0,42.4,30.36,NE,48,0.0,0.0,94,0.00,,CLR,0.00,VWS V14.01,2013-09-18 03:21:00,
2013-09-17 23:26:00,43.8,42.2,30.36,NE,48,0.0,0.0,94,0.00,,CLR,0.00,VWS V14.01,2013-09-18 03:26:00,
2013-09-17 23:30:00,43.5,41.9,30.37,NE,48,0.0,0.0,94,0.00,,OVC,0.00,VWS V14.01,2013-09-18 03:30:00,
2013-09-17 23:31:00,43.6,42.0,30.36,NE,48,0.0,0.0,94,0.00,,CLR,0.00,VWS V14.01,2013-09-18 03:31:00,
2013-09-17 23:36:00,43.4,41.8,30.36,NE,49,0.0,0.0,94,0.00,,CLR,0.00,VWS V14.01,2013-09-18 03:36:00,
2013-09-17 23:41:00,43.4,42.1,30.37,NE,47,0.0,0.0,95,0.00,,CLR,0.00,VWS V14.01,2013-09-18 03:41:00,
2013-09-17 23:47:00,43.6,42.3,30.36,NE,47,0.0,0.0,95,0.00,,CLR,0.00,VWS V14.01,2013-09-18 03:47:00,
2013-09-17 23:52:00,43.6,42.3,30.36,NE,47,0.0,0.0,95,0.00,,CLR,0.00,VWS V14.01,2013-09-18 03:52:00,
2013-09-17 23:57:00,43.5,42.2,30.36,NE,47,0.0,0.0,95,0.00,,CLR,0.00,VWS V14.01,2013-09-18 03:57:00,